Location: L�tisburg
(47.3947°N, 9.0820°E)
Time: 09:47:22
(UTC+00:00)

Lacrosse 4 Rocket - Pass Details

Date: 03 March 2021
Orbit: 537 x 620 km, 68.0° (Epoch: 11 April)

Event Time Altitude Azimuth Distance (km) Brightness Sun altitude
Rises 19:10:19 0° 195° (SSW) 2,817 5.0 -20.7°
Reaches altitude 10° 19:12:35 10° 189° (S) 1,933 4.0 -21.1°
Enters shadow 19:14:33 25° 177° (S) 1,227 2.9 -21.4°
